Tracking 28790 objects as of 19-Apr-2024
HD Live streaming from Space Station
objects crossing your sky now

SCOUT G-1 DEB

Track SCOUT G-1 DEB now!
10-day predictions


NORAD ID: 18365
Int'l Code: 1987-080E
Perigee: 990.7 km
Apogee: 1,150.6 km
Inclination: 90.3 °
Period: 106.5 minutes
Semi major axis: 7441 km
RCS: 0.012 m2 (small)
Launch date: September 16, 1987
Source: United States (US)
Launch site: AIR FORCE WESTERN TEST RANGE (AFWTR)

Note: This is SATELLITE DEBRIS
Your satellite tracking list
Your tracking list is empty




NASA's NSSDC Master Catalog

Two Line Element Set (TLE):
1 18365U 87080E   24107.09548385  .00000597  00000-0  86040-3 0  9994
2 18365  90.3315  42.1137 0107432 187.8907 186.7444 13.52376486800480
Source of the keplerian elements: AFSPC